Home > Weather > Daly City > Past weeks

Flag for USA Past Weather in Daly City, California, USA — Yesterday and Last 2 Weeks

Now
66 °F

Scattered clouds.


Feels Like: 66 °F
Forecast: 58 / 65 °F
Wind: 6 mph from Northeast

Location: San Francisco International Airport

Current Time: Aug 28, 2016 at 12:05:21 PM

Latest Report: Aug 28, 2016 at 10:56 AM


Visibility: 10 mi

Pressure: 30.09 "Hg

Humidity: 63%

Dew Point: 53 °F

Location of Daly CityLocation

Past Weather in Daly City — Graph

°F

Daly City Temperature Yesterday

Maximum temperature yesterday: 72 °F (at 2:56 PM)
Minimum temperature yesterday: 61 °F (at 12:56 AM)
Average temperature yesterday: 65 °F

High & Low Weather Summary for the Past Weeks

 TemperatureHumidityPressure
High72 °F (Aug 18, 1:56 PM)93% (Aug 14, 5:56 AM)30.11 "Hg (Aug 14, 5:56 AM)
Low54 °F (Aug 14, 5:56 AM)52% (Aug 23, 2:56 PM)29.79 "Hg (Aug 17, 5:56 PM)
Average62 °F75%29.94 "Hg
* Reported Aug 13 10:56 AM — Aug 28 10:56 AM, Daly City, Weather by CustomWeather, © 2016

Note: Actual official high and low records may vary slightly from our data, if they occured in-between our weather recording intervals... More about our weather records

Advertising

Daly City Weather History for the Previous 24 Hours

Scroll right to see more
 ConditionsComfort  
Time TempWeatherWind HumidityBarometerVisibility
10:56 AM
Sun, Aug 28
66 °FScattered clouds.6 mph63%30.09 "Hg10 mi
9:56 AM64 °FPartly sunny.5 mph65%30.10 "Hg10 mi
8:56 AM62 °FPartly sunny.No wind70%30.09 "Hg10 mi
7:56 AM61 °FPartly sunny.6 mph70%30.08 "Hg10 mi
6:56 AM60 °FPassing clouds.6 mph72%30.07 "Hg10 mi
5:56 AM60 °FOvercast.3 mph75%30.06 "Hg10 mi
4:56 AM59 °FPassing clouds.3 mph75%30.06 "Hg10 mi
3:56 AM59 °FPassing clouds.5 mph75%30.05 "Hg10 mi
2:56 AM60 °FPassing clouds.3 mph72%30.05 "Hg10 mi
1:56 AM60 °FPassing clouds.6 mph75%30.05 "Hg10 mi
12:56 AM61 °FPassing clouds.7 mph72%30.04 "Hg10 mi
11:56 PM
Sat, Aug 27
61 °FPassing clouds.9 mph75%30.04 "Hg10 mi
10:56 PM61 °FPassing clouds.9 mph75%30.03 "Hg10 mi
9:56 PM62 °FPassing clouds.10 mph73%30.02 "Hg10 mi
8:56 PM63 °FPassing clouds.12 mph68%30.01 "Hg10 mi
7:56 PM63 °FPassing clouds.12 mph70%29.99 "Hg10 mi
6:56 PM65 °FPassing clouds.15 mph66%29.98 "Hg10 mi
5:56 PM67 °FPassing clouds.17 mph61%29.98 "Hg10 mi
4:56 PM70 °FPassing clouds.16 mph55%29.98 "Hg10 mi
3:56 PM71 °FPassing clouds.16 mph55%29.98 "Hg10 mi
2:56 PM72 °FPassing clouds.14 mph53%29.99 "Hg10 mi
1:56 PM71 °FPassing clouds.14 mph53%30.01 "Hg10 mi
12:56 PM70 °FScattered clouds.12 mph57%30.01 "Hg10 mi
Weather by CustomWeather, © 2016

See weather overviewHow to use our weather pages